Time,TemperatureF,DewpointF,PressureIn,WindDirection,WindDirectionDegrees,WindSpeedMPH,WindSpeedGustMPH,Humidity,HourlyPrecipIn,Conditions,Clouds,dailyrainin,SoftwareType,DateUTC
2013-07-12 09:26:00,73.4,72.8,29.89,NE,51,0.0,0.0,98,1.51,,-RA,0.56,VWS V14.01,2013-07-12 13:26:00,
2013-07-12 09:30:00,73.5,72.9,29.89,NE,51,0.0,0.0,98,1.51,,BKN095,0.56,VWS V14.01,2013-07-12 13:30:00,
2013-07-12 09:31:00,73.5,72.9,29.89,NE,51,0.0,0.0,98,0.00,,-RA,0.56,VWS V14.01,2013-07-12 13:31:00,
2013-07-12 09:36:00,73.5,72.9,29.89,NE,51,0.0,0.0,98,0.00,,,0.56,VWS V14.01,2013-07-12 13:36:00,
2013-07-12 09:41:00,73.6,73.0,29.89,NE,51,0.0,0.0,98,0.00,,,0.56,VWS V14.01,2013-07-12 13:41:00,
2013-07-12 09:45:00,73.6,73.0,29.89,NE,51,0.0,0.0,98,0.00,,,0.56,VWS V14.01,2013-07-12 13:45:00,
2013-07-12 09:46:00,73.6,73.0,29.89,NE,51,0.0,0.0,98,0.00,,,0.56,VWS V14.01,2013-07-12 13:46:00,
2013-07-12 09:51:00,73.7,73.1,29.89,NE,51,0.0,0.0,98,0.00,,,0.56,VWS V14.01,2013-07-12 13:51:00,
2013-07-12 09:56:00,73.6,73.0,29.89,NE,51,0.0,0.0,98,0.00,,,0.56,VWS V14.01,2013-07-12 13:56:00,
2013-07-12 10:00:00,73.5,72.9,29.89,NE,51,0.0,0.0,98,0.00,,BKN095,0.56,VWS V14.01,2013-07-12 14:00:00,
2013-07-12 10:01:00,73.5,72.9,29.89,NE,51,0.0,0.0,98,0.00,,,0.56,VWS V14.01,2013-07-12 14:01:00,
2013-07-12 10:06:00,73.8,73.5,29.89,NE,51,0.0,0.0,99,0.00,,OVC015,0.56,VWS V14.01,2013-07-12 14:06:00,
2013-07-12 10:11:00,74.1,73.5,29.89,NE,51,0.0,0.0,98,0.00,,OVC015,0.56,VWS V14.01,2013-07-12 14:11:00,
2013-07-12 10:15:00,74.3,73.7,29.89,NE,51,0.0,0.0,98,0.00,,CLR,0.56,VWS V14.01,2013-07-12 14:15:00,
2013-07-12 10:16:00,74.3,73.7,29.89,NE,51,0.0,0.0,98,0.00,,OVC015,0.56,VWS V14.01,2013-07-12 14:16:00,
2013-07-12 10:21:00,74.6,74.3,29.89,NE,51,0.0,0.0,99,0.00,,OVC015,0.56,VWS V14.01,2013-07-12 14:21:00,
2013-07-12 10:26:00,74.8,74.5,29.89,NE,51,0.0,0.0,99,0.00,,OVC015,0.56,VWS V14.01,2013-07-12 14:26:00,
2013-07-12 10:30:00,74.9,74.3,29.89,NE,51,0.0,0.0,98,0.00,,CLR,0.56,VWS V14.01,2013-07-12 14:30:00,
2013-07-12 10:31:00,74.9,74.3,29.89,NE,51,0.0,0.0,98,0.00,,OVC015,0.56,VWS V14.01,2013-07-12 14:31:00,
2013-07-12 10:36:00,75.0,74.4,29.89,NE,51,0.0,0.0,98,0.00,,OVC015,0.56,VWS V14.01,2013-07-12 14:36:00,
2013-07-12 10:41:00,75.1,74.8,29.89,NE,51,0.0,2.0,99,0.00,,OVC015,0.56,VWS V14.01,2013-07-12 14:41:00,
2013-07-12 10:45:00,75.2,74.6,29.89,NE,51,0.0,2.0,98,0.00,,BKN095,0.56,VWS V14.01,2013-07-12 14:45:00,
2013-07-12 10:46:00,75.1,74.5,29.89,NE,51,0.0,0.0,98,0.00,,OVC015,0.56,VWS V14.01,2013-07-12 14:46:00,
2013-07-12 10:51:00,75.1,74.5,29.89,NE,51,0.0,0.0,98,0.00,,OVC015,0.56,VWS V14.01,2013-07-12 14:51:00,
2013-07-12 10:56:00,75.3,74.7,29.89,NE,51,0.0,0.0,98,0.00,,OVC015,0.56,VWS V14.01,2013-07-12 14:56:00,
2013-07-12 11:00:00,75.4,74.8,29.89,NE,51,0.0,0.0,98,0.00,,BKN095,0.56,VWS V14.01,2013-07-12 15:00:00,
2013-07-12 11:01:00,75.4,74.8,29.89,NE,51,0.0,0.0,98,0.00,,BKN023,0.56,VWS V14.01,2013-07-12 15:01:00,
2013-07-12 11:06:00,75.5,74.9,29.89,NE,51,0.0,0.0,98,0.00,,BKN023,0.56,VWS V14.01,2013-07-12 15:06:00,
2013-07-12 11:11:00,75.5,74.9,29.89,NE,51,0.0,0.0,98,0.00,,BKN023,0.56,VWS V14.01,2013-07-12 15:11:00,
2013-07-12 11:15:00,75.5,74.9,29.88,NE,51,0.0,0.0,98,0.00,,BKN095,0.56,VWS V14.01,2013-07-12 15:15:00,
2013-07-12 11:16:00,75.5,74.9,29.88,NE,51,0.0,0.0,98,0.00,,BKN023,0.56,VWS V14.01,2013-07-12 15:16:00,
2013-07-12 11:21:00,75.3,74.7,29.88,NE,51,0.0,0.0,98,0.00,,BKN023,0.56,VWS V14.01,2013-07-12 15:21:00,
2013-07-12 11:27:00,75.5,74.9,29.89,NE,51,0.0,0.0,98,0.00,,BKN023,0.56,VWS V14.01,2013-07-12 15:27:00,
2013-07-12 11:30:00,75.7,75.1,29.89,NE,51,0.0,0.0,98,0.00,,BKN095,0.56,VWS V14.01,2013-07-12 15:30:00,
2013-07-12 11:32:00,75.7,75.1,29.89,NE,51,0.0,0.0,98,0.00,,BKN023,0.56,VWS V14.01,2013-07-12 15:32:00,
2013-07-12 11:37:00,75.8,75.2,29.89,NE,51,0.0,0.0,98,0.00,,BKN023,0.56,VWS V14.01,2013-07-12 15:37:00,
2013-07-12 11:42:00,75.9,75.3,29.89,NE,51,0.0,0.0,98,0.00,,BKN023,0.56,VWS V14.01,2013-07-12 15:42:00,
2013-07-12 11:45:00,76.1,75.5,29.89,NE,51,0.0,0.0,98,0.00,,BKN095,0.56,VWS V14.01,2013-07-12 15:45:00,
2013-07-12 11:47:00,76.1,75.5,29.89,NE,51,0.0,0.0,98,0.00,,BKN023,0.56,VWS V14.01,2013-07-12 15:47:00,
2013-07-12 11:52:00,76.2,75.6,29.89,NE,51,0.0,0.0,98,0.00,,BKN023,0.56,VWS V14.01,2013-07-12 15:52:00,
2013-07-12 11:57:00,76.4,75.8,29.89,NE,51,0.0,0.0,98,0.00,,BKN023,0.56,VWS V14.01,2013-07-12 15:57:00,
2013-07-12 12:00:00,76.6,76.0,29.89,NE,51,0.0,0.0,98,0.00,,BKN095,0.56,VWS V14.01,2013-07-12 16:00:00,
2013-07-12 12:02:00,76.6,75.7,29.89,NE,51,0.0,0.0,97,0.00,,OVC027,0.56,VWS V14.01,2013-07-12 16:02:00,
2013-07-12 12:07:00,76.5,75.6,29.89,NE,51,0.0,0.0,97,0.00,,OVC027,0.56,VWS V14.01,2013-07-12 16:07:00,
2013-07-12 12:12:00,76.6,75.7,29.89,NE,51,0.0,0.0,97,0.00,,OVC027,0.56,VWS V14.01,2013-07-12 16:12:00,
2013-07-12 12:15:00,76.7,75.8,29.89,NE,51,0.0,0.0,97,0.00,,BKN095,0.56,VWS V14.01,2013-07-12 16:15:00,
2013-07-12 12:17:00,76.7,75.5,29.89,NE,51,0.0,0.0,96,0.00,,OVC027,0.56,VWS V14.01,2013-07-12 16:17:00,
2013-07-12 12:22:00,76.8,75.6,29.89,NE,51,0.0,0.0,96,0.00,,OVC027,0.56,VWS V14.01,2013-07-12 16:22:00,
2013-07-12 12:27:00,76.9,75.4,29.89,NE,51,0.0,0.0,95,0.00,,OVC027,0.56,VWS V14.01,2013-07-12 16:27:00,
2013-07-12 12:30:00,77.1,75.6,29.89,NE,51,0.0,0.0,95,0.00,,BKN095,0.56,VWS V14.01,2013-07-12 16:30:00,
2013-07-12 12:32:00,77.3,75.8,29.89,NE,51,0.0,0.0,95,0.00,,OVC027,0.56,VWS V14.01,2013-07-12 16:32:00,
2013-07-12 12:37:00,77.4,75.5,29.89,NE,51,0.0,0.0,94,0.00,,OVC027,0.56,VWS V14.01,2013-07-12 16:37:00,
2013-07-12 12:42:00,77.6,75.7,29.89,NE,51,0.0,0.0,94,0.00,,OVC027,0.56,VWS V14.01,2013-07-12 16:42:00,
2013-07-12 12:45:00,77.6,75.4,29.89,NE,51,0.0,0.0,93,0.00,,BKN095,0.56,VWS V14.01,2013-07-12 16:45:00,
2013-07-12 12:47:00,77.7,75.5,29.89,NE,51,0.0,0.0,93,0.00,,OVC027,0.56,VWS V14.01,2013-07-12 16:47:00,
2013-07-12 12:57:00,78.1,75.6,29.89,NE,51,0.0,0.0,92,0.00,,OVC027,0.56,VWS V14.01,2013-07-12 16:57:00,
2013-07-12 13:00:00,78.3,75.8,29.89,NE,51,0.0,0.0,92,0.00,,BKN095,0.56,VWS V14.01,2013-07-12 17:00:00,
2013-07-12 13:02:00,78.4,75.6,29.89,NE,51,0.0,2.0,91,0.00,,OVC030,0.56,VWS V14.01,2013-07-12 17:02:00,
2013-07-12 13:07:00,78.6,75.4,29.89,NE,51,0.0,2.0,90,0.00,,OVC030,0.56,VWS V14.01,2013-07-12 17:07:00,
2013-07-12 13:12:00,78.7,75.5,29.88,NE,51,0.0,2.0,90,0.00,,OVC030,0.56,VWS V14.01,2013-07-12 17:12:00,
2013-07-12 13:15:00,78.8,75.6,29.88,NE,51,0.0,2.0,90,0.00,,BKN095,0.56,VWS V14.01,2013-07-12 17:15:00,
2013-07-12 13:23:00,79.3,76.4,29.88,NE,51,0.0,0.0,91,0.00,,OVC030,0.56,VWS V14.01,2013-07-12 17:23:00,
2013-07-12 13:28:00,79.3,75.4,29.88,NE,51,0.0,0.0,88,0.00,,OVC030,0.56,VWS V14.01,2013-07-12 17:28:00,
2013-07-12 13:30:00,79.3,75.8,29.88,NE,51,0.0,0.0,89,0.00,,BKN095,0.56,VWS V14.01,2013-07-12 17:30:00,
2013-07-12 13:33:00,79.3,75.4,29.88,NE,51,0.0,0.0,88,0.00,,OVC030,0.56,VWS V14.01,2013-07-12 17:33:00,
2013-07-12 13:43:00,79.6,75.7,29.88,NE,51,0.0,1.0,88,0.00,,OVC030,0.56,VWS V14.01,2013-07-12 17:43:00,
2013-07-12 13:45:00,79.8,76.3,29.88,NE,51,0.0,1.0,89,0.00,,FEW020,0.56,VWS V14.01,2013-07-12 17:45:00,
2013-07-12 13:53:00,80.1,76.2,29.88,NE,51,0.0,0.0,88,0.00,,OVC030,0.56,VWS V14.01,2013-07-12 17:53:00,
2013-07-12 13:58:00,80.0,75.8,29.88,NE,51,0.0,0.0,87,0.00,,OVC030,0.56,VWS V14.01,2013-07-12 17:58:00,
2013-07-12 14:00:00,80.0,76.1,29.88,NE,51,0.0,0.0,88,0.00,,FEW020,0.56,VWS V14.01,2013-07-12 18:00:00,
2013-07-12 14:03:00,80.1,76.2,29.88,NE,51,0.0,0.0,88,0.00,,FEW018,0.56,VWS V14.01,2013-07-12 18:03:00,
2013-07-12 14:08:00,80.1,76.6,29.88,NE,51,0.0,0.0,89,0.00,,FEW018,0.56,VWS V14.01,2013-07-12 18:08:00,
2013-07-12 14:13:00,80.0,76.1,29.88,NE,51,0.0,0.0,88,0.00,,FEW018,0.56,VWS V14.01,2013-07-12 18:13:00,
2013-07-12 14:15:00,80.0,76.1,29.88,NE,51,0.0,0.0,88,0.00,,CLR,0.56,VWS V14.01,2013-07-12 18:15:00,
2013-07-12 14:23:00,80.0,76.5,29.88,NE,51,0.0,0.0,89,0.00,,FEW018,0.56,VWS V14.01,2013-07-12 18:23:00,
2013-07-12 14:28:00,80.0,76.5,29.88,NE,51,0.0,0.0,89,0.00,,FEW018,0.56,VWS V14.01,2013-07-12 18:28:00,
2013-07-12 14:30:00,80.0,76.5,29.88,NE,51,0.0,0.0,89,0.00,,FEW020,0.56,VWS V14.01,2013-07-12 18:30:00,
2013-07-12 14:34:00,80.0,76.5,29.87,NE,51,0.0,0.0,89,0.00,,FEW018,0.56,VWS V14.01,2013-07-12 18:34:00,
2013-07-12 14:45:00,79.9,76.4,29.87,NE,51,0.0,0.0,89,0.00,,CLR,0.56,VWS V14.01,2013-07-12 18:45:00,
2013-07-12 14:49:00,79.9,76.4,29.87,NE,51,0.0,0.0,89,0.00,,FEW018,0.56,VWS V14.01,2013-07-12 18:49:00,
2013-07-12 14:54:00,80.0,76.5,29.87,NE,51,0.0,0.0,89,0.00,,FEW018,0.56,VWS V14.01,2013-07-12 18:54:00,
2013-07-12 14:59:00,80.2,76.3,29.87,NE,51,0.0,0.0,88,0.00,,FEW018,0.56,VWS V14.01,2013-07-12 18:59:00,
2013-07-12 15:00:00,80.3,76.4,29.87,NE,51,0.0,0.0,88,0.00,,FEW020,0.56,VWS V14.01,2013-07-12 19:00:00,
2013-07-12 15:14:00,80.5,76.6,29.87,NE,51,0.0,0.0,88,0.00,,BKN025,0.56,VWS V14.01,2013-07-12 19:14:00,
2013-07-12 15:15:00,80.5,76.6,29.87,NE,51,0.0,0.0,88,0.00,,FEW020,0.56,VWS V14.01,2013-07-12 19:15:00,
2013-07-12 15:19:00,80.5,76.6,29.86,NE,51,0.0,0.0,88,0.00,,BKN025,0.56,VWS V14.01,2013-07-12 19:19:00,
2013-07-12 15:25:00,80.6,76.4,29.86,NE,51,0.0,0.0,87,0.00,,BKN025,0.56,VWS V14.01,2013-07-12 19:25:00,
2013-07-12 15:30:00,80.7,76.5,29.86,NE,51,0.0,0.0,87,0.00,,BKN025,0.56,VWS V14.01,2013-07-12 19:30:00,
2013-07-12 15:35:00,80.9,76.7,29.86,NE,51,0.0,0.0,87,0.00,,SCT100,0.56,VWS V14.01,2013-07-12 19:35:00,
2013-07-12 15:40:00,80.9,76.3,29.86,NE,51,0.0,0.0,86,0.00,,SCT100,0.56,VWS V14.01,2013-07-12 19:40:00,
2013-07-12 15:45:00,80.9,76.3,29.86,NE,51,0.0,0.0,86,0.00,,SCT100,0.56,VWS V14.01,2013-07-12 19:45:00,
2013-07-12 15:50:00,80.8,76.2,29.86,NE,51,0.0,0.0,86,0.00,,SCT100,0.56,VWS V14.01,2013-07-12 19:50:00,
2013-07-12 15:55:00,80.7,76.1,29.86,NE,51,0.0,0.0,86,0.00,,SCT100,0.56,VWS V14.01,2013-07-12 19:55:00,
2013-07-12 16:00:00,80.6,76.4,29.86,NE,51,0.0,0.0,87,0.00,,CLR,0.56,VWS V14.01,2013-07-12 20:00:00,
2013-07-12 16:10:00,80.7,76.8,29.86,NE,51,0.0,0.0,88,0.00,,BKN120,0.56,VWS V14.01,2013-07-12 20:10:00,
2013-07-12 16:15:00,80.7,76.5,29.85,NE,51,0.0,0.0,87,0.00,,FEW020,0.56,VWS V14.01,2013-07-12 20:15:00,
2013-07-12 16:26:00,80.8,76.9,29.86,NE,51,0.0,0.0,88,0.00,,BKN120,0.56,VWS V14.01,2013-07-12 20:26:00,
2013-07-12 16:30:00,80.5,76.3,29.85,NE,51,0.0,0.0,87,0.00,,FEW020,0.56,VWS V14.01,2013-07-12 20:30:00,
2013-07-12 16:31:00,80.5,76.3,29.85,NE,51,0.0,0.0,87,0.00,,BKN120,0.56,VWS V14.01,2013-07-12 20:31:00,
2013-07-12 16:36:00,80.3,76.4,29.85,NE,51,0.0,0.0,88,0.00,,BKN120,0.56,VWS V14.01,2013-07-12 20:36:00,
2013-07-12 16:41:00,80.2,76.7,29.85,NE,51,0.0,0.0,89,0.00,,BKN120,0.56,VWS V14.01,2013-07-12 20:41:00,
2013-07-12 16:45:00,80.1,76.2,29.86,NE,51,0.0,0.0,88,0.00,,FEW020,0.56,VWS V14.01,2013-07-12 20:45:00,
2013-07-12 16:46:00,80.1,76.2,29.86,NE,51,0.0,0.0,88,0.00,,BKN120,0.56,VWS V14.01,2013-07-12 20:46:00,
2013-07-12 16:51:00,80.1,76.6,29.86,NE,51,0.0,0.0,89,0.00,,BKN120,0.56,VWS V14.01,2013-07-12 20:51:00,
2013-07-12 17:00:00,80.0,76.5,29.86,NE,51,0.0,0.0,89,0.00,,BKN120,0.56,VWS V14.01,2013-07-12 21:00:00,
2013-07-12 17:06:00,79.9,76.4,29.86,NE,51,0.0,0.0,89,0.00,,FEW020,0.56,VWS V14.01,2013-07-12 21:06:00,
2013-07-12 17:11:00,80.0,76.5,29.85,NE,51,0.0,0.0,89,0.00,,FEW020,0.56,VWS V14.01,2013-07-12 21:11:00,
2013-07-12 17:15:00,80.1,76.6,29.85,NE,51,0.0,0.0,89,0.00,,FEW020,0.56,VWS V14.01,2013-07-12 21:15:00,
2013-07-12 17:16:00,80.1,76.6,29.85,NE,51,0.0,0.0,89,0.00,,FEW020,0.56,VWS V14.01,2013-07-12 21:16:00,
2013-07-12 17:30:00,81.5,77.6,29.85,NE,51,0.0,0.0,88,0.00,,FEW020,0.56,VWS V14.01,2013-07-12 21:30:00,
2013-07-12 17:45:00,82.3,77.0,29.85,NE,51,0.0,0.0,84,0.00,,CLR,0.56,VWS V14.01,2013-07-12 21:45:00,
2013-07-12 17:49:00,82.2,77.2,29.85,NE,51,0.0,0.0,85,0.00,,BKN095,0.56,VWS V14.01,2013-07-12 21:49:00,
2013-07-12 17:54:00,82.1,77.2,29.85,NE,51,0.0,0.0,85,0.00,,BKN095,0.56,VWS V14.01,2013-07-12 21:54:00,
2013-07-12 17:59:00,81.8,76.8,29.85,NE,51,0.0,0.0,85,0.00,,BKN095,0.56,VWS V14.01,2013-07-12 21:59:00,
2013-07-12 18:00:00,81.7,76.8,29.85,NE,51,0.0,0.0,85,0.00,,CLR,0.56,VWS V14.01,2013-07-12 22:00:00,
2013-07-12 18:09:00,81.0,76.1,29.85,NE,51,0.0,0.0,85,0.00,,FEW022,0.56,VWS V14.01,2013-07-12 22:09:00,
2013-07-12 18:14:00,80.8,76.6,29.85,NE,51,0.0,0.0,87,0.00,,FEW022,0.56,VWS V14.01,2013-07-12 22:14:00,
2013-07-12 18:15:00,80.8,76.6,29.85,NE,51,0.0,0.0,87,0.00,,CLR,0.56,VWS V14.01,2013-07-12 22:15:00,
2013-07-12 18:19:00,80.7,76.1,29.85,NE,51,0.0,0.0,86,0.00,,FEW022,0.56,VWS V14.01,2013-07-12 22:19:00,
2013-07-12 18:24:00,80.5,75.9,29.84,NE,51,0.0,0.0,86,0.00,,FEW022,0.56,VWS V14.01,2013-07-12 22:24:00,
2013-07-12 18:29:00,80.4,76.2,29.85,NE,51,0.0,0.0,87,0.00,,FEW022,0.56,VWS V14.01,2013-07-12 22:29:00,
2013-07-12 18:30:00,80.4,76.2,29.85,NE,51,0.0,0.0,87,0.00,,CLR,0.56,VWS V14.01,2013-07-12 22:30:00,
2013-07-12 18:34:00,80.4,76.5,29.85,NE,51,0.0,0.0,88,0.00,,FEW022,0.56,VWS V14.01,2013-07-12 22:34:00,
2013-07-12 18:39:00,80.3,76.4,29.85,NE,51,0.0,0.0,88,0.00,,FEW022,0.56,VWS V14.01,2013-07-12 22:39:00,
2013-07-12 18:44:00,80.2,76.3,29.86,NE,51,0.0,0.0,88,0.00,,FEW022,0.56,VWS V14.01,2013-07-12 22:44:00,
2013-07-12 18:45:00,80.2,76.3,29.86,NE,51,0.0,0.0,88,0.00,,CLR,0.56,VWS V14.01,2013-07-12 22:45:00,
2013-07-12 18:49:00,80.2,76.7,29.86,NE,51,0.0,0.0,89,0.00,,FEW022,0.56,VWS V14.01,2013-07-12 22:49:00,
2013-07-12 18:54:00,80.1,76.6,29.87,NE,51,0.0,0.0,89,0.00,,FEW022,0.56,VWS V14.01,2013-07-12 22:54:00,
2013-07-12 18:59:00,79.9,76.4,29.87,NE,51,0.0,0.0,89,0.00,,FEW022,0.56,VWS V14.01,2013-07-12 22:59:00,
2013-07-12 19:00:00,79.8,76.6,29.87,NE,51,0.0,0.0,90,0.00,,CLR,0.56,VWS V14.01,2013-07-12 23:00:00,
2013-07-12 19:09:00,79.3,76.1,29.88,NE,51,0.0,0.0,90,0.00,,FEW120,0.56,VWS V14.01,2013-07-12 23:09:00,
2013-07-12 19:14:00,79.1,75.9,29.88,NE,51,0.0,0.0,90,0.00,,FEW120,0.56,VWS V14.01,2013-07-12 23:14:00,
2013-07-12 19:15:00,79.0,75.8,29.88,NE,51,0.0,0.0,90,0.00,,CLR,0.56,VWS V14.01,2013-07-12 23:15:00,
2013-07-12 19:19:00,78.8,75.6,29.88,NE,51,0.0,0.0,90,0.00,,FEW120,0.56,VWS V14.01,2013-07-12 23:19:00,
2013-07-12 19:25:00,78.7,75.9,29.88,NE,51,0.0,0.0,91,0.00,,FEW120,0.56,VWS V14.01,2013-07-12 23:25:00,
2013-07-12 19:30:00,78.7,75.9,29.88,NE,51,0.0,0.0,91,0.00,,FEW120,0.56,VWS V14.01,2013-07-12 23:30:00,
2013-07-12 19:35:00,78.6,75.8,29.89,NE,51,0.0,0.0,91,0.00,,FEW120,0.56,VWS V14.01,2013-07-12 23:35:00,
2013-07-12 19:40:00,78.4,75.9,29.89,NE,51,0.0,0.0,92,0.00,,FEW120,0.56,VWS V14.01,2013-07-12 23:40:00,
2013-07-12 19:45:00,78.2,75.7,29.90,NE,54,2.0,3.0,92,0.00,,FEW120,0.56,VWS V14.01,2013-07-12 23:45:00,
2013-07-12 20:00:00,76.2,71.7,29.90,NNW,329,0.0,5.0,86,0.00,,FEW120,0.56,VWS V14.01,2013-07-13 00:00:00,
2013-07-12 20:05:00,75.6,70.8,29.90,NNW,348,0.0,2.0,85,0.00,,SCT120,0.56,VWS V14.01,2013-07-13 00:05:00,
2013-07-12 20:10:00,75.2,70.4,29.90,NNW,348,0.0,2.0,85,0.00,,SCT120,0.56,VWS V14.01,2013-07-13 00:10:00,
2013-07-12 20:15:00,75.0,70.2,29.90,NNW,346,3.0,4.0,85,0.00,,CLR,0.56,VWS V14.01,2013-07-13 00:15:00,
2013-07-12 20:21:00,74.7,70.2,29.91,NNW,346,0.0,3.0,86,0.00,,SCT120,0.56,VWS V14.01,2013-07-13 00:21:00,
2013-07-12 20:26:00,74.4,69.9,29.91,North,350,0.0,3.0,86,0.00,,SCT120,0.56,VWS V14.01,2013-07-13 00:26:00,
2013-07-12 20:30:00,74.0,69.9,29.91,NNE,18,0.0,4.0,87,0.00,,CLR,0.56,VWS V14.01,2013-07-13 00:30:00,
2013-07-12 20:31:00,74.0,69.9,29.91,WNW,294,0.0,2.0,87,0.00,,SCT120,0.56,VWS V14.01,2013-07-13 00:31:00,
2013-07-12 20:36:00,73.6,69.8,29.91,NW,312,0.0,3.0,88,0.00,,OVC036,0.56,VWS V14.01,2013-07-13 00:36:00,
2013-07-12 20:41:00,73.3,69.9,29.91,NE,34,0.0,6.0,89,0.00,,OVC036,0.56,VWS V14.01,2013-07-13 00:41:00,
2013-07-12 20:45:00,73.0,69.9,29.92,NW,317,0.0,6.0,90,0.00,,CLR,0.56,VWS V14.01,2013-07-13 00:45:00,
2013-07-12 20:46:00,73.0,69.9,29.92,NW,317,1.0,1.0,90,0.00,,OVC036,0.56,VWS V14.01,2013-07-13 00:46:00,
2013-07-12 20:56:00,72.7,70.2,29.92,NNW,327,0.0,1.0,92,0.00,,OVC036,0.56,VWS V14.01,2013-07-13 00:56:00,
2013-07-12 21:00:00,72.6,70.2,29.92,NNW,327,0.0,1.0,92,0.00,,CLR,0.56,VWS V14.01,2013-07-13 01:00:00,
2013-07-12 21:01:00,72.6,70.2,29.92,NNW,327,0.0,0.0,92,0.00,,OVC036,0.56,VWS V14.01,2013-07-13 01:01:00,
2013-07-12 21:06:00,72.6,70.2,29.92,NNW,327,0.0,0.0,92,0.00,, +RA,0.56,VWS V14.01,2013-07-13 01:06:00,
2013-07-12 21:11:00,72.5,70.1,29.91,NNW,327,0.0,0.0,92,0.00,, +RA,0.56,VWS V14.01,2013-07-13 01:11:00,
2013-07-12 21:15:00,72.5,70.4,29.91,NNW,327,0.0,0.0,93,0.00,,CLR,0.56,VWS V14.01,2013-07-13 01:15:00,
2013-07-12 21:21:00,72.4,70.3,29.90,NNW,327,0.0,0.0,93,0.00,, +RA,0.56,VWS V14.01,2013-07-13 01:21:00,
2013-07-12 21:26:00,72.3,70.2,29.91,NNW,327,0.0,0.0,93,0.01,, +RA,0.57,VWS V14.01,2013-07-13 01:26:00,
2013-07-12 21:30:00,72.2,70.4,29.91,NNW,327,0.0,0.0,94,0.01,,CLR,0.57,VWS V14.01,2013-07-13 01:30:00,
2013-07-12 21:32:00,72.2,70.4,29.91,NNW,327,0.0,0.0,94,0.01,, +RA,0.57,VWS V14.01,2013-07-13 01:32:00,
2013-07-12 21:37:00,72.0,70.2,29.91,NNW,327,0.0,0.0,94,0.01,, +RA,0.57,VWS V14.01,2013-07-13 01:37:00,
2013-07-12 21:42:00,72.0,70.2,29.91,NNW,327,0.0,0.0,94,0.01,, +RA,0.57,VWS V14.01,2013-07-13 01:42:00,
2013-07-12 21:45:00,72.0,70.5,29.91,NNW,327,0.0,0.0,95,0.01,,CLR,0.57,VWS V14.01,2013-07-13 01:45:00,
2013-07-12 21:52:00,71.8,70.3,29.91,NNW,327,0.0,0.0,95,0.02,, +RA,0.58,VWS V14.01,2013-07-13 01:52:00,
2013-07-12 21:57:00,71.5,70.0,29.91,NNW,327,0.0,0.0,95,0.02,, +RA,0.58,VWS V14.01,2013-07-13 01:57:00,
2013-07-12 22:00:00,71.4,69.9,29.91,NNW,327,0.0,0.0,95,0.02,,CLR,0.58,VWS V14.01,2013-07-13 02:00:00,
2013-07-12 22:07:00,71.3,69.8,29.91,NNW,327,0.0,0.0,95,0.03,,-RA,0.59,VWS V14.01,2013-07-13 02:07:00,
2013-07-12 22:15:00,71.3,70.1,29.91,NNW,327,0.0,0.0,96,0.03,,-RA,0.59,VWS V14.01,2013-07-13 02:15:00,
2013-07-12 22:22:00,71.3,70.1,29.90,NNW,327,0.0,0.0,96,0.03,,-RA,0.59,VWS V14.01,2013-07-13 02:22:00,
2013-07-12 22:27:00,71.3,70.1,29.90,NNW,327,0.0,0.0,96,0.03,,-RA,0.59,VWS V14.01,2013-07-13 02:27:00,
2013-07-12 22:30:00,71.3,70.1,29.90,NNW,327,0.0,0.0,96,0.03,,CLR,0.59,VWS V14.01,2013-07-13 02:30:00,
2013-07-12 22:32:00,71.3,70.1,29.90,NNW,327,0.0,0.0,96,0.02,,-RA,0.59,VWS V14.01,2013-07-13 02:32:00,
2013-07-12 22:37:00,71.3,70.1,29.90,NNW,327,0.0,0.0,96,0.02,,-RA,0.59,VWS V14.01,2013-07-13 02:37:00,
2013-07-12 22:42:00,71.3,70.1,29.90,NNW,327,0.0,0.0,96,0.02,,-RA,0.59,VWS V14.01,2013-07-13 02:42:00,
2013-07-12 22:45:00,71.2,70.0,29.90,NNW,327,0.0,0.0,96,0.02,,CLR,0.59,VWS V14.01,2013-07-13 02:45:00,
2013-07-12 22:47:00,71.2,70.0,29.89,NNW,327,0.0,0.0,96,0.02,,-RA,0.59,VWS V14.01,2013-07-13 02:47:00,
2013-07-12 23:00:00,71.2,70.0,29.89,NNW,327,0.0,0.0,96,0.02,,-RA,0.59,VWS V14.01,2013-07-13 03:00:00,
2013-07-12 23:08:00,71.2,70.3,29.89,NNW,327,0.0,0.0,97,0.01,,-RA,0.59,VWS V14.01,2013-07-13 03:08:00,
2013-07-12 23:13:00,71.2,70.3,29.89,NNW,327,0.0,0.0,97,0.01,,-RA,0.59,VWS V14.01,2013-07-13 03:13:00,
2013-07-12 23:15:00,71.2,70.3,29.89,NNW,327,0.0,0.0,97,0.01,,CLR,0.59,VWS V14.01,2013-07-13 03:15:00,
2013-07-12 23:18:00,71.2,70.3,29.90,NNW,327,0.0,0.0,97,0.00,,-RA,0.59,VWS V14.01,2013-07-13 03:18:00,
2013-07-12 23:23:00,71.2,70.3,29.90,NNW,327,0.0,0.0,97,0.00,,-RA,0.59,VWS V14.01,2013-07-13 03:23:00,
2013-07-12 23:30:00,71.2,70.3,29.90,NNW,327,0.0,0.0,97,0.00,,-RA,0.59,VWS V14.01,2013-07-13 03:30:00,
2013-07-12 23:38:00,71.2,70.3,29.90,NNW,327,0.0,0.0,97,0.00,,-RA,0.59,VWS V14.01,2013-07-13 03:38:00,
2013-07-12 23:43:00,71.2,70.3,29.90,NNW,327,0.0,0.0,97,0.00,,-RA,0.59,VWS V14.01,2013-07-13 03:43:00,
2013-07-12 23:45:00,71.2,70.3,29.90,NNW,327,0.0,0.0,97,0.00,,CLR,0.59,VWS V14.01,2013-07-13 03:45:00,
2013-07-12 23:48:00,71.2,70.3,29.90,NNW,327,0.0,0.0,97,0.00,,-RA,0.59,VWS V14.01,2013-07-13 03:48:00,
2013-07-12 23:58:00,71.3,70.4,29.90,NNW,327,0.0,0.0,97,0.00,,-RA,0.59,VWS V14.01,2013-07-13 03:58:00,